Regional Weather Roundup
Issued by NWS Cleveland, OH

Home | Current Version | Previous Version | Graphics & Text | Print | Product List | Glossary On
Versions: 1 2 3 4 5 6 7 8 9 10 11 12 13 14 15 16 17 18 19 20 21 22 23 24 25 26 27 28 29 30 31 32 33 34 35 36 37 38 39 40 41 42 43 44 45 46 47 48 49 50
000
ASUS41 KCLE 241512
RWRCLE
OHIO REGIONAL WEATHER ROUNDUP
NATIONAL WEATHER SERVICE WILMINGTON, OH
1100 AM EDT WED MAY 24 2017

NOTE: "FAIR" INDICATES FEW OR NO CLOUDS BELOW 12,000 FEET WITH NO
SIGNIFICANT WEATHER AND/OR OBSTRUCTIONS TO VISIBILITY.

OHZ001>008-015>018-024>027-034-035-043-044-241600-
   NORTHWEST OHIO

CITY           SKY/WX    TMP DP  RH WIND       PRES   REMARKS
DEFIANCE       FAIR      67  58  72 NE7       29.54F
FINDLAY        PTSUNNY   71  58  63 SE9       29.54F
TOLEDO EXPRESS CLOUDY    66  60  81 E8        29.56F
TOLEDO EXEC    CLOUDY    66  61  84 E6        29.57F
LIMA           PTSUNNY   67  59  75 E10       29.53F
$$

OHZ009>014-019>023-028>033-038-089-241600-
   NORTHEAST OHIO

CITY           SKY/WX    TMP DP  RH WIND       PRES   REMARKS
CLE-HOPKINS    CLOUDY    68  57  68 SE8       29.62F
CLE-LAKEFRONT  CLOUDY    66  55  67 SE9       29.59F
CUY CO. ARPT   PTSUNNY   64  59  82 E9        29.61F
LORAIN-ELYRIA    N/A    N/A N/A N/A MISG      29.60F
ASHTABULA      PTSUNNY   66  57  72 SE9       29.63F
AKRON-CANTON   CLOUDY    63  54  72 SE13      29.60F
WOOSTER        CLOUDY    62  55  77 SE12      29.60F
MANSFIELD      CLOUDY    63  56  78 E9        29.59S
YOUNGSTOWN     CLOUDY    62  55  77 SE13      29.62F
$$

OHZ042-051>053-060>062-070>072-077>081-241600-
  SOUTHWEST OHIO

CITY           SKY/WX    TMP DP  RH WIND       PRES   REMARKS
CINC-COVINGTON LGT RAIN  63  60  90 SE7       29.51F
CINC-LUNKEN    LGT RAIN  66  62  87 VRB5      29.51F
HAMILTON       CLOUDY    66  61  84 E9        29.52F
DAYTON         PTSUNNY   67  58  72 E12       29.54S
WRIGHT-PAT AFB CLOUDY    67  61  80 SE9       29.53F
DAYTON GENERAL CLOUDY    65  58  78 SE6       29.53R
WILMINGTON     CLOUDY    65  59  81 E8        29.53F
$$

OHZ036-037-039>041-045>050-054>059-063>069-073>076-082>088-241600-
  CENTRAL AND SOUTHEAST OHIO

CITY           SKY/WX    TMP DP  RH WIND       PRES   REMARKS
COLUMBUS       CLOUDY    65  58  78 E10       29.55F
OSU AIRPORT    CLOUDY    66  58  75 E13       29.54F
BOLTON FIELD   CLOUDY    66  61  82 SE8       29.55F
RICKENBACK AFB CLOUDY    64  60  87 SE12      29.54F
NEWARK         CLOUDY    64  56  75 E9        29.55F
MARION         PTSUNNY   67  57  70 E10       29.56F
LANCASTER      CLOUDY    64  58  80 E8        29.56F
ZANESVILLE     LGT RAIN  62  59  90 E10       29.57F
NEW PHILLY     CLOUDY    62  57  83 SE15      29.60F
$$



USA.gov is the U.S. government's official web portal to all federal, state and local government web resources and services.